Tracking 20382 objects as of 24-Feb-2020
HD Live streaming from Space Station
objects crossing your sky now
Track the group of recently launched Starlink satellites

IRIDIUM 33 DEB

Track IRIDIUM 33 DEB now!
10-day predictions


NORAD ID: 34095
Int'l Code: 1997-051DE
Perigee: 663.4 km
Apogee: 742.6 km
Inclination: 86.4 °
Period: 98.7 minutes
Semi major axis: 7073 km
RCS: 0.059 m2 (small)
Launch date: September 14, 1997
Source: United States (US)
Launch site: TYURATAM MISSILE AND SPACE COMPLEX (TTMTR)

Note: This is SATELLITE DEBRIS
aabbcc
Your satellite tracking list
Your tracking list is empty




NASA's NSSDC Master Catalog

Two Line Element Set (TLE):
1 34095U 97051DE  20055.14205343  .00003130  00000-0  64544-3 0  9990
2 34095  86.3880 213.2321 0056043 118.6432 242.0430 14.59168362580231
Source of the keplerian elements: AFSPC